Location: Asheville, NC
(35.6000°N, 82.5500°W)
Time: 06:05:36
(UTC-04:00)

SO-50 - Pass Details

Date: 03 January 2018
Orbit: 595 x 692 km, 64.6° (Epoch: 22 July)

Event Time Altitude Azimuth Distance (km) Brightness Sun altitude
Rises 20:44:07 0° 312° (NW) 2,983 ? -38.7°
Reaches altitude 10° 20:46:58 10° 294° (WNW) 2,085 ? -39.3°
Enters shadow 20:47:53 13° 285° (WNW) 1,864 ? -39.5°
